User: anonymous   Login
Location: Peebles
(55.6412°N, 3.1714°W)
Time: 19:46:54
(UTC+01:00)
Language:

SR - Orbit

View from above orbital plane
View from above orbital plane
View from above satellite
View from above satellite

Ground track
Ground track

The orbit data is extracted from the following two-line orbital elements,

1    46U 60007B   22275.23408608  .00000821  00000-0  18064-3 0  9995
2    46  66.6895 304.8734 0214825 228.5483 129.7003 14.49818847260379
Epoch (UTC): 02 October 2022 05:37:05
Eccentricity: 0.0214825
inclination: 66.6895°
perigee height: 573 km
apogee height: 879 km
right ascension of ascending node: 304.8734°
argument of perigee: 228.5483°
revolutions per day: 14.49818847
mean anomaly at epoch: 129.7003°
orbit number at epoch: 26037

The dashed part of the orbit path shows where the satellite is in the earth's shadow,  

DLR